Location: Newark
(34.7333°N, 33.0833°E)
Time: 08:30:09
(UTC+00:00)

LightSail 2 - Visible Passes

Search period start: 18 January 2020 00:00
Search period end: 28 January 2020 00:00
Orbit: 703 x 721 km, 24.0° (Epoch: 17 January)

Date Brightness Start Highest point End Pass type
(mag) Time Alt. Az. Time Alt. Az. Time Alt. Az.
18 Jan 7.5 15:28:00 10° S 15:29:42 11° SSE 15:31:24 10° SE visible
18 Jan 6.9 17:10:36 10° SW 17:14:22 22° S 17:14:22 22° S visible
19 Jan 7.1 16:12:38 10° SSW 16:16:15 19° SSE 16:19:35 11° SE visible
19 Jan 7.5 17:56:59 10° SW 17:58:32 17° SW 17:58:32 17° SW visible
20 Jan 6.7 16:58:44 10° SW 17:02:52 24° S 17:03:45 23° SSE visible
21 Jan 6.9 16:00:34 10° SW 16:04:34 23° S 16:08:35 10° ESE visible
21 Jan 7.2 17:45:24 10° WSW 17:47:55 20° SSW 17:47:55 20° SSW visible
22 Jan 6.8 16:47:01 10° SW 16:51:11 25° S 16:53:09 20° SSE visible
23 Jan 6.9 15:48:42 10° SW 15:52:51 24° S 15:57:01 10° SE visible
23 Jan 7.1 17:33:57 10° WSW 17:37:21 21° SSW 17:37:21 21° SSW visible
24 Jan 7.0 16:35:25 10° WSW 16:39:26 23° S 16:42:39 13° SE visible
25 Jan 7.0 15:36:58 10° SW 15:41:05 24° S 15:45:13 10° SE visible
25 Jan 7.3 17:22:46 10° SW 17:25:58 17° SSW 17:26:56 16° S visible
26 Jan 7.3 16:24:00 10° WSW 16:27:38 19° SSW 16:31:16 10° SSE visible
27 Jan 7.7 17:12:12 10° SW 17:14:04 12° SSW 17:15:57 10° S visible
